Location: McFarlands Corners
(41.4117°N, 81.3382°W)
Time: 05:13:56
(UTC+00:00)

A-11 Canister half - Pass Details

Date: 24 February 2026
Orbit: 1524 x 1683 km, 47.3° (Epoch: 14 March)

Event Time Altitude Azimuth Distance (km) Brightness Sun altitude
Rises 03:24:33 0° 296° (WNW) 4,677 12.2 -46.5°
Reaches altitude 10° 03:27:50 10° 289° (WNW) 3,693 11.5 -47.0°
Enters shadow 03:32:55 30° 262° (W) 2,479 10.2 -47.7°
